DL9GJ-4 Weather Reports


time (UTC)temp
C
wind
direction
speed
KPH
gust
KPH
rain 1hr
cm
rain 24hr
cm
rain mn
cm
humidity
%
barometer
mb
20190419124653 22 138 3.2 3.2 0.00 0.00 0.00 16 1026.0
20190419123442 22 291 3.2 3.2 0.00 0.00 0.00 13 1026.0
20190419122838 22 5 3.2 4.8 0.00 0.00 0.00 16 1026.0
20190419121633 21 263 4.8 4.8 0.00 0.00 0.00 16 1026.0
20190419121024 21 169 3.2 3.2 0.00 0.00 0.00 16 1026.0
20190419120423 22 269 3.2 4.8 0.00 0.00 0.00 16 1026.0
20190419114614 20 287 4.8 4.8 0.00 0.00 0.00 17 1026.0
20190419112813 19 200 3.2 4.8 0.00 0.00 0.00 17 1026.0
20190419112213 19 174 4.8 8.0 0.00 0.00 0.00 17 1026.0
20190419111648 19 254 4.8 4.8 0.00 0.00 0.00 17 1026.0
20190419111613 19 254 4.8 4.8 0.00 0.00 0.00 17 1026.0
20190419111017 19 192 4.8 4.8 0.00 0.00 0.00 17 1026.0
20190419105204 21 210 4.8 6.4 0.00 0.00 0.00 17 1026.0
20190419104739 20 276 3.2 6.4 0.00 0.00 0.00 17 1026.0
20190419104604 20 276 3.2 6.4 0.00 0.00 0.00 17 1026.0
20190419103956 19 236 6.4 6.4 0.00 0.00 0.00 17 1026.0
20190419103352 20 321 3.2 4.8 0.00 0.00 0.00 17 1026.0
20190419102750 20 161 4.8 4.8 0.00 0.00 0.00 17 1026.0
20190419102147 20 268 3.2 3.2 0.00 0.00 0.00 17 1026.0
20190419101542 19 196 0.0 6.4 0.00 0.00 0.00 17 1026.0
20190419100942 18 210 4.8 4.8 0.00 0.00 0.00 17 1026.0
20190419100338 18 291 0.0 4.8 0.00 0.00 0.00 15 1026.0
20190419095736 19 296 3.2 3.2 0.00 0.00 0.00 17 1026.0
20190419095236 19 201 3.2 4.8 0.00 0.00 0.00 17 1026.0
20190419095133 19 201 3.2 4.8 0.00 0.00 0.00 17 1026.0
20190419094005 20 330 0.0 4.8 0.00 0.00 0.00 17 1026.0
20190419093932 20 330 0.0 4.8 0.00 0.00 0.00 17 1026.0
20190419093325 20 89 6.4 6.4 0.00 0.00 0.00 17 1026.0
20190419092722 20 53 4.8 4.8 0.00 0.00 0.00 17 1026.0
20190419092235 20 37 4.8 4.8 0.00 0.00 0.00 17 1026.0
20190419092118 20 37 4.8 4.8 0.00 0.00 0.00 17 1026.0
20190419090916 18 289 0.0 4.8 0.00 0.00 0.00 20 1026.0
20190419090311 18 314 0.0 3.2 0.00 0.00 0.00 20 1027.0
20190419085707 17 175 0.0 3.2 0.00 0.00 0.00 20 1027.0
20190419085104 17 291 4.8 4.8 0.00 0.00 0.00 21 1027.0
20190419084458 16 177 3.2 4.8 0.00 0.00 0.00 23 1027.0
20190419083856 17 280 4.8 4.8 0.00 0.00 0.00 21 1027.0
20190419083255 17 220 4.8 4.8 0.00 0.00 0.00 23 1026.0
20190419082049 16 257 4.8 4.8 0.00 0.00 0.00 24 1026.0
20190419081446 15 270 4.8 4.8 0.00 0.00 0.00 24 1026.0
20190419080842 15 196 3.2 4.8 0.00 0.00 0.00 24 1026.0
20190419080242 15 292 3.2 3.2 0.00 0.00 0.00 24 1026.0
20190419075713 15 332 0.0 3.2 0.00 0.00 0.00 24 1026.0
20190419075641 15 332 0.0 3.2 0.00 0.00 0.00 24 1026.0
20190419074440 15 295 0.0 0.0 0.00 0.00 0.00 24 1026.0
20190419073239 14 179 0.0 3.2 0.00 0.00 0.00 24 1026.0
20190419072728 14 54 0.0 0.0 0.00 0.00 0.00 24 1026.0
20190419072639 14 54 0.0 0.0 0.00 0.00 0.00 24 1026.0
20190419072042 14 48 0.0 0.0 0.00 0.00 0.00 25 1026.0
20190419071439 13 48 0.0 0.0 0.00 0.00 0.00 26 1026.0
20190419070839 13 48 0.0 0.0 0.00 0.00 0.00 28 1026.0
20190419070240 12 48 0.0 3.2 0.00 0.00 0.00 35 1026.0
20190419065045 11 48 3.2 3.2 0.00 0.00 0.00 38 1026.0
20190419064438 10 48 0.0 0.0 0.00 0.00 0.00 41 1026.0
20190419063238 10 48 0.0 0.0 0.00 0.00 0.00 43 1026.0
20190419062724 9 48 3.2 3.2 0.00 0.00 0.00 45 1026.0
20190419062638 9 48 3.2 3.2 0.00 0.00 0.00 45 1026.0
20190419062043 9 48 4.8 4.8 0.00 0.00 0.00 46 1026.0
20190419061439 8 47 0.0 0.0 0.00 0.00 0.00 45 1026.0
20190419060838 8 48 0.0 0.0 0.00 0.00 0.00 43 1026.0
20190419060234 8 48 4.8 4.8 0.00 0.00 0.00 42 1026.0
20190419055635 8 47 0.0 4.8 0.00 0.00 0.00 45 1026.0
20190419055030 7 48 0.0 4.8 0.00 0.00 0.00 47 1026.0
20190419054426 6 47 6.4 6.4 0.00 0.00 0.00 44 1026.0
20190419053821 7 48 4.8 4.8 0.00 0.00 0.00 48 1026.0
20190419053221 6 48 3.2 4.8 0.00 0.00 0.00 50 1025.0
20190419052721 5 48 6.4 6.4 0.00 0.00 0.00 50 1025.0
20190419052620 5 48 6.4 6.4 0.00 0.00 0.00 50 1025.0
20190419052017 5 48 6.4 6.4 0.00 0.00 0.00 51 1025.0
20190419051413 4 48 4.8 8.0 0.00 0.00 0.00 52 1025.0
20190419050811 4 45 8.0 8.0 0.00 0.00 0.00 55 1025.0
20190419050210 3 44 4.8 4.8 0.00 0.00 0.00 59 1025.0
20190419045719 2 44 4.8 8.0 0.00 0.00 0.00 58 1025.0
20190419045608 2 44 4.8 8.0 0.00 0.00 0.00 58 1025.0
20190419044405 3 53 3.2 4.8 0.00 0.00 0.00 53 1025.0
20190419043800 3 49 6.4 8.0 0.00 0.00 0.00 54 1025.0
20190419043158 3 43 8.0 8.0 0.00 0.00 0.00 52 1025.0
20190419042712 3 66 0.0 0.0 0.00 0.00 0.00 52 1025.0
20190419042555 3 66 0.0 0.0 0.00 0.00 0.00 52 1025.0
20190419042026 3 65 0.0 3.2 0.00 0.00 0.00 52 1025.0
20190419041952 3 65 0.0 3.2 0.00 0.00 0.00 52 1025.0
20190419041352 3 66 4.8 4.8 0.00 0.00 0.00 53 1025.0
20190419040147 3 53 4.8 4.8 0.00 0.00 0.00 55 1024.0
20190419035547 3 53 4.8 4.8 0.00 0.00 0.00 56 1024.0
20190419034944 3 53 0.0 4.8 0.00 0.00 0.00 56 1024.0
20190419033738 3 53 4.8 8.0 0.00 0.00 0.00 56 1024.0
20190419033214 3 51 6.4 6.4 0.00 0.00 0.00 54 1024.0
20190419033138 3 51 6.4 6.4 0.00 0.00 0.00 54 1024.0
20190419032534 3 48 0.0 0.0 0.00 0.00 0.00 55 1024.0
20190419031930 3 49 0.0 4.8 0.00 0.00 0.00 56 1024.0
20190419031403 3 48 4.8 6.4 0.00 0.00 0.00 55 1024.0
20190419031325 3 48 4.8 6.4 0.00 0.00 0.00 55 1024.0
20190419030723 3 49 3.2 3.2 0.00 0.00 0.00 54 1024.0
20190419030124 3 49 0.0 4.8 0.00 0.00 0.00 54 1024.0
20190419025712 4 48 4.8 4.8 0.00 0.00 0.00 56 1024.0
20190419025521 4 48 4.8 4.8 0.00 0.00 0.00 56 1024.0
20190419024318 4 48 4.8 4.8 0.00 0.00 0.00 56 1024.0
20190419023713 3 49 4.8 4.8 0.00 0.00 0.00 56 1024.0
20190419021904 4 49 4.8 4.8 0.00 0.00 0.00 55 1024.0
20190419021300 3 48 4.8 4.8 0.00 0.00 0.00 55 1024.0
20190419020657 4 48 0.0 3.2 0.00 0.00 0.00 54 1024.0
20190419014848 5 48 0.0 0.0 0.00 0.00 0.00 57 1024.0
20190419014243 4 49 0.0 0.0 0.00 0.00 0.00 58 1024.0
20190419013708 4 48 4.8 6.4 0.00 0.00 0.00 54 1024.0
20190419013636 4 48 4.8 6.4 0.00 0.00 0.00 54 1024.0
20190419013033 5 36 0.0 3.2 0.00 0.00 0.00 56 1024.0
20190419012431 4 36 0.0 4.8 0.00 0.00 0.00 58 1024.0
20190419011828 4 36 4.8 6.4 0.00 0.00 0.00 58 1024.0
20190419010014 5 54 4.8 6.4 0.00 0.00 0.00 53 1024.0
20190419005411 5 51 3.2 4.8 0.00 0.00 0.00 52 1024.0
20190419004810 5 51 0.0 4.8 0.00 0.00 0.00 51 1024.0
20190419004207 5 51 4.8 4.8 0.00 0.00 0.00 50 1024.0
20190419003009 5 46 4.8 4.8 0.00 0.00 0.00 51 1024.0
20190419002409 5 52 0.0 0.0 0.00 0.00 0.00 49 1024.0
20190419001208 6 55 0.0 4.8 0.00 0.00 0.00 50 1024.0
20190419000608 6 55 4.8 4.8 0.00 0.00 0.00 51 1024.0
20190418235408 5 55 0.0 0.0 0.00 0.00 0.00 49 1024.0
20190418234803 5 55 0.0 4.8 0.00 0.00 0.00 49 1024.0
20190418234201 5 43 6.4 6.4 0.00 0.00 0.00 50 1024.0
20190418233600 6 47 4.8 4.8 0.00 0.00 0.00 48 1024.0
20190418232353 6 47 6.4 6.4 0.00 0.00 0.00 45 1024.0
20190418231751 6 36 4.8 6.4 0.00 0.00 0.00 47 1024.0
20190418231147 6 31 3.2 3.2 0.00 0.00 0.00 44 1024.0
20190418230545 7 31 0.0 0.0 0.00 0.00 0.00 43 1024.0
20190418225942 7 31 0.0 4.8 0.00 0.00 0.00 45 1024.0
20190418224738 6 31 0.0 4.8 0.00 0.00 0.00 44 1023.0
20190418224134 7 55 4.8 6.4 0.00 0.00 0.00 43 1023.0
20190418222325 7 48 0.0 0.0 0.00 0.00 0.00 38 1023.0
20190418221721 8 48 0.0 0.0 0.00 0.00 0.00 37 1023.0
20190418221118 8 48 0.0 0.0 0.00 0.00 0.00 37 1023.0
20190418220517 8 48 0.0 0.0 0.00 0.00 0.00 36 1023.0
20190418215915 8 48 0.0 0.0 0.00 0.00 0.00 35 1023.0
20190418215310 10 48 3.2 3.2 0.00 0.00 0.00 32 1023.0
20190418214707 10 47 3.2 3.2 0.00 0.00 0.00 31 1023.0
20190418214154 10 47 0.0 3.2 0.00 0.00 0.00 30 1023.0
20190418214106 10 47 0.0 3.2 0.00 0.00 0.00 30 1023.0
20190418212859 10 269 0.0 3.2 0.00 0.00 0.00 30 1023.0
20190418212259 10 220 4.8 4.8 0.00 0.00 0.00 30 1023.0
20190418211752 10 209 0.0 4.8 0.00 0.00 0.00 29 1023.0
20190418211654 10 209 0.0 4.8 0.00 0.00 0.00 29 1023.0
20190418211047 11 171 0.0 4.8 0.00 0.00 0.00 27 1023.0
20190418210445 12 140 4.8 4.8 0.00 0.00 0.00 26 1023.0
20190418205839 12 50 3.2 6.4 0.00 0.00 0.00 25 1023.0
20190418205234 13 40 4.8 4.8 0.00 0.00 0.00 25 1023.0
20190418204632 13 74 6.4 6.4 0.00 0.00 0.00 25 1022.0
20190418204033 13 49 4.8 8.0 0.00 0.00 0.00 25 1022.0
20190418203440 13 23 8.0 8.0 0.00 0.00 0.00 24 1022.0
20190418202907 13 54 11.3 12.9 0.00 0.00 0.00 24 1022.0
20190418202832 13 54 11.3 12.9 0.00 0.00 0.00 24 1022.0
20190418202232 13 37 11.3 11.3 0.00 0.00 0.00 24 1022.0
20190418201632 13 60 9.7 9.7 0.00 0.00 0.00 24 1022.0
20190418201031 13 84 8.0 9.7 0.00 0.00 0.00 24 1022.0
20190418200432 13 29 11.3 11.3 0.00 0.00 0.00 24 1022.0
20190418195902 13 52 9.7 9.7 0.00 0.00 0.00 22 1022.0
20190418195831 13 52 9.7 9.7 0.00 0.00 0.00 22 1022.0
20190418195242 13 64 9.7 9.7 0.00 0.00 0.00 22 1022.0
20190418194626 13 88 11.3 11.3 0.00 0.00 0.00 24 1022.0
20190418194021 13 67 8.0 9.7 0.00 0.00 0.00 22 1022.0
20190418193423 13 70 9.7 11.3 0.00 0.00 0.00 22 1022.0
20190418192817 13 54 8.0 11.3 0.00 0.00 0.00 22 1022.0
20190418192214 13 62 12.9 12.9 0.00 0.00 0.00 22 1022.0
20190418191612 13 84 9.7 12.9 0.00 0.00 0.00 22 1022.0
20190418191108 14 69 12.9 12.9 0.00 0.00 0.00 22 1022.0
20190418191013 14 69 12.9 12.9 0.00 0.00 0.00 22 1022.0
20190418190407 14 71 16.1 16.1 0.00 0.00 0.00 24 1022.0
20190418185207 13 74 9.7 9.7 0.00 0.00 0.00 24 1022.0
20190418184002 13 45 9.7 9.7 0.00 0.00 0.00 24 1022.0
20190418182802 13 59 8.0 9.7 0.00 0.00 0.00 25 1022.0
20190418182158 13 46 9.7 11.3 0.00 0.00 0.00 25 1022.0
20190418181557 13 50 9.7 9.7 0.00 0.00 0.00 25 1022.0
20190418180959 13 44 9.7 9.7 0.00 0.00 0.00 25 1022.0
20190418180355 14 27 9.7 9.7 0.00 0.00 0.00 24 1022.0
20190418175755 15 40 8.0 8.0 0.00 0.00 0.00 24 1022.0
20190418175153 15 46 8.0 8.0 0.00 0.00 0.00 22 1021.0
20190418174550 15 59 8.0 8.0 0.00 0.00 0.00 21 1021.0
20190418173951 15 66 8.0 8.0 0.00 0.00 0.00 21 1021.0
20190418173353 16 39 9.7 9.7 0.00 0.00 0.00 21 1021.0
20190418172751 16 38 8.0 8.0 0.00 0.00 0.00 21 1021.0
20190418172223 16 36 8.0 11.3 0.00 0.00 0.00 21 1021.0
20190418172150 16 36 8.0 11.3 0.00 0.00 0.00 21 1021.0
20190418171639 16 22 8.0 9.7 0.00 0.00 0.00 18 1021.0
20190418171551 16 22 8.0 9.7 0.00 0.00 0.00 18 1021.0
20190418165306 17 55 9.7 9.7 0.00 0.00 0.00 20 1021.0
20190418165150 17 55 9.7 9.7 0.00 0.00 0.00 20 1021.0
20190418164637 17 86 9.7 9.7 0.00 0.00 0.00 18 1021.0
20190418164550 17 86 9.7 9.7 0.00 0.00 0.00 18 1021.0
20190418164028 17 59 8.0 11.3 0.00 0.00 0.00 18 1021.0
20190418163949 17 59 8.0 11.3 0.00 0.00 0.00 18 1021.0
20190418163404 17 44 11.3 11.3 0.00 0.00 0.00 18 1021.0
20190418162755 18 44 11.3 11.3 0.00 0.00 0.00 18 1021.0
20190418162144 18 46 8.0 11.3 0.00 0.00 0.00 20 1021.0
20190418161636 18 40 9.7 11.3 0.00 0.00 0.00 17 1021.0
20190418161556 18 40 9.7 11.3 0.00 0.00 0.00 17 1021.0
20190418160937 18 37 9.7 9.7 0.00 0.00 0.00 17 1021.0
20190418160332 17 43 11.3 11.3 0.00 0.00 0.00 18 1021.0
20190418155729 17 45 11.3 11.3 0.00 0.00 0.00 18 1021.0
20190418155123 18 37 9.7 11.3 0.00 0.00 0.00 17 1021.0
20190418154517 18 40 11.3 11.3 0.00 0.00 0.00 17 1021.0
20190418153916 19 61 11.3 11.3 0.00 0.00 0.00 17 1021.0
20190418153314 20 23 9.7 9.7 0.00 0.00 0.00 20 1021.0
20190418152109 17 26 4.8 4.8 0.00 0.00 0.00 23 1021.0
20190418151508 17 48 0.0 3.2 0.00 0.00 0.00 23 1021.0
20190418150300 17 51 0.0 3.2 0.00 0.00 0.00 23 1021.0
20190418145659 17 66 0.0 4.8 0.00 0.00 0.00 23 1021.0
20190418143852 19 52 0.0 4.8 0.00 0.00 0.00 20 1021.0
20190418143253 19 315 4.8 4.8 0.00 0.00 0.00 20 1021.0
20190418142649 18 70 3.2 3.2 0.00 0.00 0.00 20 1021.0
20190418141708 19 46 8.0 8.0 0.00 0.00 0.00 20 1021.0
20190418141445 19 46 8.0 8.0 0.00 0.00 0.00 20 1021.0
20190418140931 20 266 3.2 4.8 0.00 0.00 0.00 22 1021.0
20190418140846 20 266 3.2 4.8 0.00 0.00 0.00 22 1021.0
20190418140246 20 159 4.8 4.8 0.00 0.00 0.00 22 1021.0
20190418135646 18 152 0.0 0.0 0.00 0.00 0.00 23 1021.0
20190418135146 17 319 0.0 0.0 0.00 0.00 0.00 23 1021.0
20190418135044 17 319 0.0 0.0 0.00 0.00 0.00 23 1021.0
20190418134634 17 261 0.0 3.2 0.00 0.00 0.00 23 1021.0
20190418134444 17 261 0.0 3.2 0.00 0.00 0.00 23 1021.0
20190418133917 17 220 0.0 0.0 0.00 0.00 0.00 24 1021.0
20190418133844 17 220 0.0 0.0 0.00 0.00 0.00 24 1021.0
20190418133246 16 220 0.0 0.0 0.00 0.00 0.00 24 1021.0
20190418132643 16 241 3.2 3.2 0.00 0.00 0.00 23 1021.0
20190418132042 16 18 0.0 0.0 0.00 0.00 0.00 24 1021.0
20190418130243 16 17 3.2 3.2 0.00 0.00 0.00 24 1021.0
20190418125643 16 276 3.2 4.8 0.00 0.00 0.00 24 1021.0
20190418125128 16 116 4.8 4.8 0.00 0.00 0.00 25 1021.0
20190418125042 16 116 4.8 4.8 0.00 0.00 0.00 25 1021.0